TimeCDT,TemperatureF,Dew PointF,Humidity,Sea Level PressureIn,VisibilityMPH,Wind Direction,Wind SpeedMPH,Gust SpeedMPH,PrecipitationIn,Events,Conditions,WindDirDegrees,DateUTC
12:52 AM,64.0,50.0,60,30.02,10.0,Calm,Calm,-,N/A,,Mostly Cloudy,0,2013-07-02 05:52:00
1:52 AM,62.1,51.1,67,30.01,10.0,NW,3.5,-,N/A,,Clear,310,2013-07-02 06:52:00
2:52 AM,61.0,51.1,70,30.01,10.0,Calm,Calm,-,N/A,,Clear,0,2013-07-02 07:52:00
3:52 AM,57.9,51.1,78,30.01,10.0,NW,4.6,-,N/A,,Clear,320,2013-07-02 08:52:00
4:52 AM,57.0,51.1,81,30.02,10.0,NW,4.6,-,N/A,,Clear,310,2013-07-02 09:52:00
5:52 AM,55.0,51.1,86,30.04,10.0,NW,4.6,-,N/A,,Clear,310,2013-07-02 10:52:00
6:52 AM,57.0,52.0,83,30.05,10.0,NW,3.5,-,N/A,,Clear,310,2013-07-02 11:52:00
7:52 AM,59.0,54.0,83,30.06,10.0,NW,3.5,-,N/A,,Clear,320,2013-07-02 12:52:00
9:52 AM,68.0,55.9,65,30.08,10.0,NNW,9.2,-,N/A,,Clear,340,2013-07-02 14:52:00
10:52 AM,73.0,55.0,53,30.07,10.0,North,9.2,-,N/A,,Clear,360,2013-07-02 15:52:00
11:52 AM,75.0,50.0,41,30.07,10.0,North,15.0,-,N/A,,Clear,10,2013-07-02 16:52:00
12:52 PM,78.1,51.1,39,30.06,10.0,NNE,16.1,-,N/A,,Clear,30,2013-07-02 17:52:00
1:52 PM,79.0,50.0,36,30.05,10.0,NE,13.8,23.0,N/A,,Partly Cloudy,40,2013-07-02 18:52:00
2:52 PM,79.0,52.0,39,30.05,10.0,NNE,17.3,23.0,N/A,,Scattered Clouds,20,2013-07-02 19:52:00
3:52 PM,78.1,50.0,37,30.05,10.0,NE,10.4,-,N/A,,Partly Cloudy,40,2013-07-02 20:52:00
4:52 PM,81.0,51.1,35,30.04,10.0,NNE,12.7,21.9,N/A,,Partly Cloudy,20,2013-07-02 21:52:00
5:52 PM,79.0,50.0,36,30.04,10.0,NNE,13.8,-,N/A,,Partly Cloudy,30,2013-07-02 22:52:00
6:52 PM,75.9,52.0,43,30.04,10.0,North,8.1,-,N/A,,Mostly Cloudy,10,2013-07-02 23:52:00
7:52 PM,73.9,53.1,48,30.04,10.0,NNE,4.6,-,N/A,,Clear,30,2013-07-03 00:52:00
8:52 PM,68.0,55.0,63,30.05,10.0,Calm,Calm,-,N/A,,Clear,0,2013-07-03 01:52:00
9:52 PM,64.9,55.0,70,30.06,10.0,Calm,Calm,-,N/A,,Clear,0,2013-07-03 02:52:00
10:52 PM,62.6,53.6,72,30.07,10.0,Calm,Calm,-,N/A,,Clear,0,2013-07-03 03:52:00
11:52 PM,61.0,54.0,78,30.07,10.0,SE,5.8,-,N/A,,Clear,130,2013-07-03 04:52:00